Flag for U.S.A. Weather past 2 weeks in Oxnard, California, U.S.A.

Now
59 °F

Clear.


Feels Like: 58 °F
Forecast: 54 / 67 °F
Wind: 7 mph from Northwest

Location: Oxnard Airport

Current Time: Jan 27, 2015 at 8:31:32 PM

Latest Report: Jan 27, 2015 at 7:51 PM


Visibility: 10 mi

Pressure: 30.17 "Hg

Humidity: 84%

Dew point: 54 °F

Location of OxnardLocation

Historic Weather in Oxnard — Graph

°F

Oxnard temperature yesterday

Maximum temperature yesterday: 78 °F (at 11:51 AM)
Minimum temperature yesterday: 57 °F (at 2:51 AM)
Average temperature yesterday: 65 °F

Past Weeks' High & Low Weather Summary

 TemperatureHumidityPressure
High84 °F (Jan 25, 12:51 PM)93% (Jan 20, 1:51 AM)30.27 "Hg (Jan 20, 1:51 AM)
Low49 °F (Jan 14, 4:51 AM)13% (Jan 22, 11:51 AM)29.92 "Hg (Jan 20, 4:51 PM)
Average61 °F56%30.11 "Hg
* Reported Jan 12 6:51 PM — Jan 27 6:51 PM, Oxnard, Weather by CustomWeather, © 2014

Note: Actual official high and low records may vary slightly from our data, if they occured in-between our weather recording intervals... More about our weather records

Advertising

Oxnard weather history for previous 24 hours

 ConditionsComfort  
Time TempWeatherWind HumidityBarometerVisibility
6:51 PM
Jan 27
60 °FClear.8 mph83%30.17 "Hg10 mi
5:51 PM61 °FClear.9 mph81%30.16 "Hg10 mi
4:51 PM63 °FSunny.9 mph73%30.15 "Hg10 mi
3:51 PM65 °FSunny.12 mph66%30.16 "Hg10 mi
2:51 PM66 °FSunny.13 mph61%30.16 "Hg10 mi
1:51 PM66 °FPassing clouds.14 mph63%30.16 "Hg10 mi
12:51 PM68 °FSunny.10 mph57%30.16 "Hg10 mi
11:51 AM69 °FSunny.3 mph51%30.18 "Hg10 mi
10:51 AM67 °FSunny.8 mph61%30.19 "Hg10 mi
9:51 AM65 °FScattered clouds.5 mph70%30.20 "Hg10 mi
8:51 AM61 °FPartly sunny.3 mph78%30.20 "Hg10 mi
7:51 AM59 °FOvercast.3 mph84%30.19 "Hg10 mi
6:51 AM58 °FLight rain. Mostly cloudy.3 mph84%30.17 "Hg10 mi
5:51 AM59 °FMostly cloudy.5 mph81%30.14 "Hg10 mi
4:51 AM58 °FOvercast.5 mph84%30.12 "Hg10 mi
3:51 AM58 °FOvercast.3 mph84%30.12 "Hg10 mi
2:51 AM58 °FOvercast.5 mph84%30.11 "Hg10 mi
1:51 AM58 °FOvercast.5 mph84%30.11 "Hg10 mi
12:51 AM59 °FPassing clouds.No wind81%30.10 "Hg10 mi
11:51 PM
Jan 26
58 °FOvercast.5 mph84%30.10 "Hg10 mi
10:51 PM59 °FOvercast.7 mph84%30.09 "Hg10 mi
9:51 PM59 °FMostly cloudy.5 mph84%30.08 "Hg10 mi
8:51 PM59 °FRain. Mostly cloudy.8 mph84%30.07 "Hg6 mi
Weather by CustomWeather, © 2014

See weather overviewHow to use our weather pages